Flag for U.S.A. Weather past 2 weeks in Rochester, New York, U.S.A.

Now
53 °F

Partly sunny.


Feels Like: 49 °F
Forecast: 47 / 55 °F
Wind: 14 mph from North

Location: Greater Rochester International Airport

Current Time: Oct 23, 2014 at 12:21:13 PM

Latest Report: Oct 23, 2014 at 11:54 AM


Visibility: 10 mi

Pressure: 30.09 "Hg

Humidity: 61%

Dew point: 40 °F

Location of RochesterLocation

Historic Weather in Rochester — Graph

°F

Rochester temperature yesterday

Maximum temperature yesterday: 51 °F (at 6:54 PM)
Minimum temperature yesterday: 47 °F (at 12:54 AM)
Average temperature yesterday: 49 °F

Past Weeks' High & Low Weather Summary

 TemperatureHumidityPressure
High81 °F (Oct 14, 12:54 PM)100% (Oct 16, 6:54 AM)30.32 "Hg (Oct 16, 6:54 AM)
Low34 °F (Oct 12, 3:54 AM)32% (Oct 9, 2:54 PM)29.52 "Hg (Oct 18, 3:54 AM)
Average53 °F74%29.95 "Hg
* Reported Oct 8 10:54 AM — Oct 23 10:54 AM, Rochester, Weather by CustomWeather, © 2014

Note: Actual official high and low records may vary slightly from our data, if they occured in-between our weather recording intervals... More about our weather records

Advertising

Rochester weather history for previous 24 hours

 ConditionsComfort  
Time TempWeatherWind HumidityBarometerVisibility
10:54 AM
Oct 23
51 °FPartly sunny.16 mph66%30.10 "Hg10 mi
9:54 AM50 °FPartly sunny.13 mph66%30.11 "Hg10 mi
8:54 AM49 °FPartly sunny.12 mph66%30.10 "Hg10 mi
7:54 AM48 °FPartly cloudy.10 mph68%30.11 "Hg10 mi
6:54 AM47 °FPartly cloudy.12 mph71%30.12 "Hg10 mi
5:54 AM47 °FPassing clouds.10 mph74%30.12 "Hg10 mi
4:54 AM48 °FPassing clouds.13 mph71%30.11 "Hg10 mi
3:54 AM48 °FClear.12 mph71%30.11 "Hg10 mi
2:54 AM49 °FPassing clouds.14 mph69%30.12 "Hg10 mi
1:54 AM49 °FPassing clouds.16 mph71%30.13 "Hg10 mi
12:54 AM49 °FPassing clouds.14 mph71%30.14 "Hg10 mi
11:54 PM
Oct 22
49 °FPassing clouds.10 mph77%30.17 "Hg10 mi
10:54 PM50 °FPassing clouds.12 mph74%30.18 "Hg10 mi
9:54 PM51 °FOvercast.15 mph71%30.20 "Hg10 mi
8:54 PM50 °FOvercast.16 mph74%30.21 "Hg10 mi
7:54 PM51 °FOvercast.15 mph69%30.20 "Hg10 mi
6:54 PM51 °FMostly cloudy.12 mph71%30.20 "Hg10 mi
5:54 PM50 °FMostly cloudy.8 mph71%30.21 "Hg10 mi
4:54 PM50 °FMostly cloudy.9 mph71%30.21 "Hg10 mi
3:54 PM49 °FOvercast.10 mph74%30.21 "Hg10 mi
3:02 PM49 °FOvercast.10 mph74%30.19 "Hg10 mi
2:54 PM49 °FOvercast.13 mph74%30.21 "Hg10 mi
1:54 PM48 °FOvercast.15 mph77%30.22 "Hg10 mi
12:54 PM48 °FOvercast.15 mph80%30.23 "Hg10 mi
Weather by CustomWeather, © 2014

See weather overviewHow to use our weather pages